Regional Weather Roundup
Issued by NWS

Home | Current Version | Previous Version | Graphics & Text | Print | Product List | Glossary Off
Versions: 1 2 3 4 5 6 7 8 9 10 11 12 13 14 15 16 17 18 19 20 21 22 23 24 25 26 27 28 29 30 31 32 33 34 35 36 37 38 39 40 41 42 43 44 45 46 47 48 49 50

000
ASUS43 KMKX 251103
RWRWI

WISCONSIN REGIONAL WEATHER ROUNDUP
NATIONAL WEATHER SERVICE MILWAUKEE/SULLIVAN WI
600 AM CDT MON MAY 25 2015

NOTE: "FAIR" INDICATES FEW OR NO CLOUDS BELOW 12,000 FEET WITH NO
SIGNIFICANT WEATHER AND/OR OBSTRUCTIONS TO VISIBILITY.

WIZ001-002-006>008-014>016-023>028-251200-
NORTHWEST WISCONSIN

CITY           SKY/WX    TMP DP  RH WIND       PRES   REMARKS
SUPERIOR ARPT  LGT RAIN  49  49  99 E12       29.76S
ASHLAND        RAIN      54  54 100 NE13      29.76F FOG
HAYWARD        LGT RAIN  58  55  90 NE8       29.72F
SIREN          DRIZZLE   57  56  97 E5        29.70F
CUMBERLAND     CLOUDY    54  54 100 E3        29.71S
RICE LAKE      CLOUDY    56  55  94 E3        29.72F
CHETEK         CLOUDY    56  56  99 E5        29.70F
LADYSMITH      LGT RAIN  57  56  98 SE3       29.73F
EAU CLAIRE     NOT AVBL
MENOMONIE      CLOUDY    57  57  98 CALM      29.70F FOG
NEW RICHMOND   CLOUDY    56  56 100 E5        29.69F
OSCEOLA        RAIN      57  57 100 E7        29.71F
$$

WIZ003>005-009-010-017-018-251200-
NORTH CENTRAL WISCONSIN

CITY           SKY/WX    TMP DP  RH WIND       PRES   REMARKS
MANITOWISH WTR HVY RAIN  56  56 100 E6        29.76F
ARBOR VITAE    LGT RAIN  57  55  95 SE8       29.76F
WOODRUFF       LGT RAIN  57  55  95 SE8       29.76F
RHINELANDER    LGT RAIN  56  55  97 SE10      29.77F FOG
EAGLE RIVER    LGT RAIN  55  55  99 SE9G16    29.78F
LAND O LAKES   LGT RAIN  56  56  97 SE8       29.79F
PHILLIPS       DRIZZLE   55  55 100 CALM      29.73F
TOMAHAWK       DRIZZLE   56  55  97 SE6       29.76F
MEDFORD        DRIZZLE   56  56  99 SE6       29.73F
MERRILL        DRIZZLE   57  57 100 SE12      29.76F
$$

WIZ029-030-035-036-043>047-251200-
CENTRAL WISCONSIN

CITY           SKY/WX    TMP DP  RH WIND       PRES   REMARKS
WAUSAU         CLOUDY    58  58 100 SE6       29.74F FOG
MOSINEE        DRIZZLE   57  57 100 SE7       29.76F
MARSHFIELD     LGT RAIN  61  59  93 SE8       29.73F VSB 1/2
STEVENS POINT  RAIN      57  57  99 SE6       29.76F
WAUPACA        LGT RAIN  61  60  97 CALM      29.77F
WAUTOMA        LGT RAIN  61  61 100 CALM      29.76F FOG
WISC RAPIDS    LGT RAIN  62  59  90 SE5       29.75F
CAMP DOUGLAS   DRIZZLE   61  61 100 E7        29.71F FOG
$$

WIZ011>013-019>022-031-037>040-048>050-251200-
NORTHEAST WISCONSIN

CITY           SKY/WX    TMP DP  RH WIND       PRES   REMARKS
ANTIGO         CLOUDY    55  55 100 SE10      29.79F FOG
SHAWANO        DRIZZLE   59  58  96 E6        29.79F
OCONTO         CLOUDY    55  55 100 CALM      29.80F
STURGEON BAY   CLOUDY    55  50  82 SE7       29.83F
GREEN BAY      LGT RAIN  58  57  97 NE5       29.79F FOG
MANITOWOC      LGT RAIN  52  50  93 SE8       29.82S VSB 1/4
APPLETON       LGT RAIN  61  61 100 VRB5      29.78F FOG
CLINTONVILLE   LGT RAIN  59  57  94 E3        29.78F
OSHKOSH        LGT RAIN  62  60  93 CALM      29.76F FOG
$$

WIZ032>034-041-042-053>061-251200-
SOUTHWEST WISCONSIN

CITY           SKY/WX    TMP DP  RH WIND       PRES   REMARKS
LA CROSSE      CLOUDY    63  61  93 CALM      29.69S FOG
SPARTA         LGT RAIN  64  62  93 CALM      29.71F
VIROQUA        CLOUDY    64  64 100 S5        29.71F
BOSCOBEL       LGT RAIN  63  62  97 CALM      29.72R FOG
PRAIRIE DU CHI RAIN      65  63  91 CALM      29.71S
PLATTEVILLE    CLOUDY    65  65  97 CALM      29.72S
$$

WIZ056-057-062-063-064-067-068-251200-
SOUTH CENTRAL WISCONSIN

CITY           SKY/WX    TMP DP  RH WIND       PRES   REMARKS
REEDSBURG      RAIN      63  63  99 CALM      29.72F
BARABOO/DELLS  RAIN      64  62  94 SE3       29.73F
LONE ROCK      LGT RAIN  64  64 100 SE5       29.72F FOG
MINERAL POINT  RAIN      66  64  94 SE5       29.72F
MADISON        CLOUDY    66  64  93 SE14      29.73F
MIDDLETON      CLOUDY    67  66  97 S7        29.74F
WATERTOWN      CLOUDY    64  64 100 SE6       29.77F
MONROE         CLOUDY    64  64 100 S18       29.74F
JANESVILLE     CLOUDY    66  64  94 S14       29.76F
$$

WIZ051-052-058>065-066-070>072-251200-
SOUTHEAST WISCONSIN

CITY           SKY/WX    TMP DP  RH WIND       PRES   REMARKS
MILWAUKEE      CLOUDY    57  55  93 SE6       29.82F FOG
WAUKESHA       CLOUDY    61  61 100 SE7       29.81F FOG
MILWAUKEE/TIMM CLOUDY    55  54  94 CALM      29.82F FOG
RACINE         CLOUDY    55  52  89 CALM      29.84S FOG
BURLINGTON     CLOUDY    61  61  99 S6        29.80F FOG
KENOSHA        CLOUDY    69  61  75 S13G21    29.82S
FOND DU LAC    CLOUDY    65  62  90 S7        29.77F
SHEBOYGAN      LGT RAIN  54  54 100 SE5       29.81F VSB 3/4
WEST BEND      CLOUDY    63  61  94 SE3       29.80F FOG
JUNEAU         CLOUDY    64  63  97 SE7       29.78F
$$

LSZ147-162-251200-
LAKE SUPERIOR

STATION/POSITION TIME  TEMP    WIND        PRES    WAVE
                       AIR SEA DIR/SP/G            HT/PER
                 (UTC) (F)     (DEG/KT/KT) (MB)    (FT/S)
W MID LAKE BUOY  0950   42 37   50/  8/ 10   N/A     0
DEVILS ISLAND    1000   45      50/ 18/ 20   N/A
PORT WING        1000   47      30/ 15/ 17 1088.0
SAXON HARBOR     1040   51      40/  6/ 10 1075.0
$$

LMZ867-665-643>646-251200-
LAKE MICHIGAN

STATION/POSITION TIME  TEMP    WIND        PRES    WAVE
                       AIR SEA DIR/SP/G            HT/PER
                 (UTC) (F)     (DEG/KT/KT) (MB)    (FT/S)
CHAMBERS ISLAND  1000   55      90/  6/  8   N/A
N MID LAKE BUOY  0950   46 36  110/ 14/ 16   N/A     1/ 3
NORTHPORT PIER   1000   50     110/ 11/ 14   N/A
SISTER BAY       1017   52     120/  9/ 15   N/A
KEWAUNEE LAKESHO 1000   49     160/  5/  7   N/A
SHEBOYGAN LAKESH 1000   46     180/  5/  7   N/A
PORT WASHINGTON  1000   50     210/  3/  4   N/A
ATWATER BUOY     1000   49 46  150/  6/  6   N/A
MILWAUKEE LAKESH 1000   51     170/  1/  3   N/A
S MID LAKE BUOY  0950   49 38  170/ 14/ 16   N/A     1/ 3
KENOSHA   LAKESH 1000   53     350/  1/  3   N/A
$$

TC  - TEMPERATURE IN CELSIUS
VSB - VISIBILITY IN STATUTE MILES
WCI - WIND CHILL INDEX
HX  - HEAT INDEX




USA.gov is the U.S. government's official web portal to all federal, state and local government web resources and services.